Location: Binningen
(47.7924°N, 8.7261°E)
Time: 07:47:28
(UTC+00:00)

Cosmos 2227 Rocket - Pass Details

Date: 17 May 2021
Orbit: 840 x 844 km, 71.0° (Epoch: 20 June)

Event Time Altitude Azimuth Distance (km) Brightness Sun altitude
Rises 23:10:57 0° 336° (NNW) 3,406 6.5 -22.6°
Reaches altitude 10° 23:13:35 10° 344° (NNW) 2,468 5.7 -22.6°
Maximum altitude 23:18:51 38° 52° (NE) 1,263 3.4 -22.7°
Enters shadow 23:22:42 17° 113° (ESE) 2,001 3.9 -22.7°
